Location: Moscow
(30.9132°N, 94.8252°W)
Time: 05:34:53
(UTC+00:00)

Intelsat 5-2 Rocket - Pass Details

Date: 15 November 2025
Orbit: 334 x 9725 km, 23.6° (Epoch: 03 December)

Event Time Altitude Azimuth Distance (km) Brightness Sun altitude
Exits shadow 11:35:52 16° 250° (WSW) 2,304 5.5 -15.3°
Maximum altitude 11:39:30 30° 198° (SSW) 1,097 4.3 -14.5°
Drops below altitude 10° 11:42:16 10° 133° (SE) 1,511 6.0 -13.9°
Sets 11:43:55 0° 119° (ESE) 2,183 7.5 -13.6°
